Weather History for KMTJ - July, 2013

Change the Weather History Date:

Saturday, July 6, 2013

  Actual Average Record
Temperature  
Mean Temperature 79 °F 73 °F  
Max Temperature 90 °F 90 °F 96 °F (2001)
Min Temperature 68 °F 57 °F 50 °F (1997)
Degree Days  
Heating Degree Days 0 0  
Month to date heating degree days 0 0  
Since 1 June heating degree days 9 39  
Since 1 July heating degree days 0 0  
Cooling Degree Days 14 8  
Month to date cooling degree days 77 47  
Year to date cooling degree days 341 199  
Since 1 June cooling degree days 316 182  
Growing Degree Days 29 (Base 50)    
Moisture  
Dew Point 46 °F    
Average Humidity 34    
Maximum Humidity 49    
Minimum Humidity 19    
Precipitation  
Precipitation T in 0.02 in 0.33 in (2006)
Month to date precipitation T 0.14  
Year to date precipitation 2.65 5.21  
Sea Level Pressure  
Sea Level Pressure 29.84 in    
Wind  
Wind Speed 6 mph (East)    
Max Wind Speed 20 mph    
Max Gust Speed 26 mph    
Visibility 9 miles    
Events Rain    
T = Trace of Precipitation, MM = Missing Value Source: NWS Daily Summary

Daily Weather History Graph

Daily Weather History Graph

Search for Another Location

Airport or City:

Trip Planner

Search our weather history database for the weather conditions in past years. The results will help you decide how hot, cold, wet, or windy it might be!

Date:

Astronomy

Jul. 06, 2013 Rise Set
Actual Time 5:53 AM MDT 8:38 PM MDT
Civil Twilight 5:22 AM MDT 9:10 PM MDT
Nautical Twilight 4:43 AM MDT 9:49 PM MDT
Astronomical Twilight 3:58 AM MDT 10:33 PM MDT
Moon 4:41 AM MDT (7/6) 7:23 PM MDT (7/6)
Length of Visible Light 15h 47m
Length of Day
14h 44m
Waning Crescent, 2% of the Moon is Illuminated
Jul 6
Waning Crescent
Jul 8
New
Jul 15
First Quarter
Jul 22
Full
Jul 29
Last Quarter

Hourly Weather History & Observations

Time (MDT) Temp. Dew Point Humidity Pressure Visibility Wind Dir Wind Speed Gust Speed Precip Events Conditions
12:53 AM 73.9 °F 44.1 °F 34% 29.74 in 10.0 mi South 10.4 mph - N/A   Mostly Cloudy
1:29 AM 73.4 °F 48.2 °F 41% 30.08 in 10.0 mi North 8.1 mph - 0.00 in Rain Light Rain
1:53 AM 73.9 °F 46.9 °F 38% 29.79 in 10.0 mi North 11.5 mph - 0.00 in Rain Light Rain
2:53 AM 73.9 °F 46.9 °F 38% 29.81 in 10.0 mi Calm Calm - N/A   Overcast
3:53 AM 71.1 °F 51.1 °F 49% 29.79 in 10.0 mi SSE 11.5 mph - N/A   Partly Cloudy
4:53 AM 70.0 °F 48.9 °F 47% 29.79 in 10.0 mi ESE 6.9 mph - N/A   Partly Cloudy
5:53 AM 70.0 °F 48.0 °F 46% 29.79 in 10.0 mi SE 10.4 mph - N/A   Mostly Cloudy
6:53 AM 69.1 °F 46.0 °F 44% 29.81 in 10.0 mi ESE 4.6 mph - N/A   Partly Cloudy
7:31 AM 71.6 °F 48.2 °F 43% 30.10 in 0.8 mi South 5.8 mph - N/A   Haze
7:41 AM 71.6 °F 48.2 °F 43% 30.10 in 1.5 mi SSE 6.9 mph - N/A   Haze
7:43 AM 71.6 °F 48.2 °F 43% 30.10 in 3.0 mi SSE 6.9 mph - N/A   Haze
7:53 AM 73.0 °F 48.0 °F 41% 29.82 in 10.0 mi SSE 6.9 mph - N/A   Partly Cloudy
8:53 AM 73.9 °F 48.9 °F 41% 29.84 in 10.0 mi Variable 3.5 mph - N/A   Clear
9:53 AM 79.0 °F 48.9 °F 35% 29.83 in 10.0 mi Calm Calm - N/A   Clear
10:53 AM 82.0 °F 46.0 °F 28% 29.83 in 10.0 mi NNW 5.8 mph - N/A   Clear
11:53 AM 86.0 °F 44.1 °F 23% 29.81 in 10.0 mi NNW 9.2 mph - N/A   Clear
12:53 PM 87.1 °F 45.0 °F 23% 29.80 in 10.0 mi North 10.4 mph - N/A   Clear
1:53 PM 88.0 °F 45.0 °F 22% 29.78 in 10.0 mi NNW 8.1 mph - N/A   Clear
2:53 PM 89.1 °F 44.1 °F 21% 29.75 in 10.0 mi North 6.9 mph - N/A   Clear
3:53 PM 89.1 °F 43.0 °F 20% 29.73 in 10.0 mi Calm Calm - N/A   Clear
4:53 PM 88.0 °F 43.0 °F 21% 29.71 in 10.0 mi NNW 4.6 mph - N/A   Clear
5:53 PM 88.0 °F 45.0 °F 22% 29.71 in 10.0 mi Variable 4.6 mph - N/A   Clear
6:53 PM 87.1 °F 43.0 °F 21% 29.71 in 10.0 mi South 3.5 mph - N/A   Clear
7:53 PM 82.9 °F 50.0 °F 32% 29.72 in 10.0 mi South 4.6 mph - N/A   Clear
8:53 PM 81.0 °F 48.0 °F 31% 29.74 in 10.0 mi South 5.8 mph - N/A   Clear
9:40 PM 80.6 °F 44.6 °F 28% 30.07 in 10.0 mi NNW 15.0 mph - N/A   Mostly Cloudy
9:53 PM 79.0 °F 44.1 °F 29% 29.80 in 10.0 mi NNW 13.8 mph - N/A   Scattered Clouds
10:53 PM 77.0 °F 44.1 °F 31% 29.83 in 10.0 mi NE 8.1 mph - N/A   Overcast
11:53 PM 77.0 °F 44.1 °F 31% 29.84 in 10.0 mi Calm Calm - N/A   Overcast